Time,TemperatureF,DewpointF,PressureIn,WindDirection,WindDirectionDegrees,WindSpeedMPH,WindSpeedGustMPH,Humidity,HourlyPrecipIn,Conditions,Clouds,dailyrainin,SoftwareType,DateUTC
2013-05-20 00:03:00,75.0,64.0,29.86,SSW,194,0.0,4.0,69,0.00,,,0.00,,2013-05-20 04:03:00,
2013-05-20 00:13:00,75.0,64.0,29.86,SSW,194,0.0,4.0,69,0.00,,,0.00,,2013-05-20 04:13:00,
2013-05-20 00:23:00,74.0,64.0,29.86,SE,138,1.0,3.0,70,0.00,,,0.00,,2013-05-20 04:23:00,
2013-05-20 00:33:00,73.0,63.0,29.86,SSE,159,0.0,3.0,72,0.00,,,0.00,,2013-05-20 04:33:00,
2013-05-20 00:42:00,73.0,63.0,29.86,SSE,159,0.0,3.0,72,0.00,,,0.00,,2013-05-20 04:42:00,
2013-05-20 00:52:00,73.0,64.0,29.86,SE,143,0.0,3.0,73,0.00,,,0.00,,2013-05-20 04:52:00,
2013-05-20 01:02:00,72.0,64.0,29.86,SE,146,0.0,2.0,75,0.00,,,0.00,,2013-05-20 05:02:00,
2013-05-20 01:12:00,72.0,64.0,29.86,SE,146,0.0,2.0,75,0.00,,,0.00,,2013-05-20 05:12:00,
2013-05-20 01:22:00,71.0,63.0,29.85,SSE,161,0.0,4.0,77,0.00,,,0.00,,2013-05-20 05:22:00,
2013-05-20 01:32:00,71.0,64.0,29.85,SSE,162,0.0,3.0,78,0.00,,,0.00,,2013-05-20 05:32:00,
2013-05-20 01:42:00,71.0,64.0,29.85,SSE,162,0.0,3.0,78,0.00,,,0.00,,2013-05-20 05:42:00,
2013-05-20 01:52:00,71.0,64.0,29.85,East,100,0.0,2.0,78,0.00,,,0.00,,2013-05-20 05:52:00,
2013-05-20 02:01:00,70.0,64.0,29.84,SE,144,0.0,3.0,80,0.00,,,0.00,,2013-05-20 06:01:00,
2013-05-20 02:11:00,70.0,64.0,29.84,SE,144,0.0,3.0,80,0.00,,,0.00,,2013-05-20 06:11:00,
2013-05-20 02:21:00,70.0,64.0,29.85,SE,146,0.0,2.0,81,0.00,,,0.00,,2013-05-20 06:21:00,
2013-05-20 02:32:00,70.0,64.0,29.84,SE,144,1.0,4.0,81,0.00,,,0.00,,2013-05-20 06:32:00,
2013-05-20 02:42:00,70.0,64.0,29.84,SE,144,1.0,4.0,81,0.00,,,0.00,,2013-05-20 06:42:00,
2013-05-20 02:52:00,70.0,64.0,29.84,SE,140,0.0,3.0,81,0.00,,,0.00,,2013-05-20 06:52:00,
2013-05-20 03:02:00,70.0,65.0,29.85,SSE,167,0.0,3.0,83,0.00,,,0.00,,2013-05-20 07:02:00,
2013-05-20 03:12:00,70.0,65.0,29.85,SSE,167,0.0,3.0,83,0.00,,,0.00,,2013-05-20 07:12:00,
2013-05-20 03:21:00,70.0,64.0,29.84,South,169,0.0,3.0,82,0.00,,,0.00,,2013-05-20 07:21:00,
2013-05-20 03:32:00,69.0,64.0,29.84,SSE,153,0.0,3.0,83,0.00,,,0.00,,2013-05-20 07:32:00,
2013-05-20 03:42:00,69.0,64.0,29.84,SSE,153,0.0,3.0,83,0.00,,,0.00,,2013-05-20 07:42:00,
2013-05-20 03:52:00,69.0,64.0,29.84,SSE,160,0.0,4.0,84,0.00,,,0.00,,2013-05-20 07:52:00,
2013-05-20 04:01:00,69.0,64.0,29.84,SE,129,0.0,4.0,84,0.00,,,0.00,,2013-05-20 08:01:00,
2013-05-20 04:11:00,69.0,64.0,29.84,SE,129,0.0,4.0,84,0.00,,,0.00,,2013-05-20 08:11:00,
2013-05-20 04:21:00,69.0,64.0,29.83,SE,143,0.0,2.0,84,0.00,,,0.00,,2013-05-20 08:21:00,
2013-05-20 04:32:00,69.0,64.0,29.84,SSE,148,0.0,4.0,85,0.00,,,0.00,,2013-05-20 08:32:00,
2013-05-20 04:42:00,69.0,64.0,29.84,SSE,148,0.0,4.0,85,0.00,,,0.00,,2013-05-20 08:42:00,
2013-05-20 04:52:00,69.0,64.0,29.84,SSE,157,1.0,3.0,85,0.00,,,0.00,,2013-05-20 08:52:00,
2013-05-20 05:02:00,69.0,64.0,29.84,South,180,1.0,4.0,85,0.00,,,0.00,,2013-05-20 09:02:00,
2013-05-20 05:12:00,69.0,64.0,29.84,South,180,1.0,4.0,85,0.00,,,0.00,,2013-05-20 09:12:00,
2013-05-20 05:22:00,70.0,65.0,29.85,SE,144,0.0,3.0,84,0.00,,,0.00,,2013-05-20 09:22:00,
2013-05-20 05:33:00,70.0,65.0,29.85,SW,234,1.0,5.0,84,0.00,,,0.00,,2013-05-20 09:33:00,
2013-05-20 05:43:00,70.0,65.0,29.85,SW,234,1.0,5.0,84,0.00,,,0.00,,2013-05-20 09:43:00,
2013-05-20 05:53:00,71.0,66.0,29.85,South,179,0.0,4.0,84,0.00,,,0.00,,2013-05-20 09:53:00,
2013-05-20 06:03:00,70.0,65.0,29.84,SSE,162,0.0,2.0,84,0.00,,,0.00,,2013-05-20 10:03:00,
2013-05-20 06:12:00,70.0,65.0,29.84,SSE,162,0.0,2.0,84,0.00,,,0.00,,2013-05-20 10:12:00,
2013-05-20 06:22:00,70.0,65.0,29.83,SSE,150,0.0,3.0,85,0.00,,,0.00,,2013-05-20 10:22:00,
2013-05-20 06:33:00,69.0,65.0,29.83,SSE,147,0.0,3.0,87,0.00,,,0.00,,2013-05-20 10:33:00,
2013-05-20 06:42:00,69.0,65.0,29.83,SSE,147,0.0,3.0,87,0.00,,,0.00,,2013-05-20 10:42:00,
2013-05-20 06:52:00,69.0,65.0,29.83,SE,141,1.0,7.0,88,0.00,,,0.00,,2013-05-20 10:52:00,
2013-05-20 07:02:00,69.0,65.0,29.83,SE,136,2.0,7.0,88,0.00,,,0.00,,2013-05-20 11:02:00,
2013-05-20 07:12:00,69.0,65.0,29.83,SE,136,2.0,7.0,88,0.00,,,0.00,,2013-05-20 11:12:00,
2013-05-20 07:22:00,69.0,66.0,29.83,SSE,163,0.0,5.0,89,0.00,,,0.00,,2013-05-20 11:22:00,
2013-05-20 07:32:00,70.0,67.0,29.84,SSE,163,2.0,7.0,89,0.00,,,0.00,,2013-05-20 11:32:00,
2013-05-20 07:42:00,70.0,67.0,29.84,SSE,163,2.0,7.0,89,0.00,,,0.00,,2013-05-20 11:42:00,
2013-05-20 07:52:00,71.0,68.0,29.85,SSW,194,2.0,6.0,89,0.00,,,0.00,,2013-05-20 11:52:00,
2013-05-20 08:01:00,72.0,68.0,29.87,WSW,238,4.0,8.0,88,0.00,,,0.00,,2013-05-20 12:01:00,
2013-05-20 08:12:00,72.0,68.0,29.87,WSW,238,4.0,8.0,88,0.00,,,0.00,,2013-05-20 12:12:00,
2013-05-20 08:21:00,73.0,69.0,29.88,SSW,192,2.0,7.0,87,0.00,,,0.00,,2013-05-20 12:21:00,
2013-05-20 08:32:00,74.0,70.0,29.87,SW,225,4.0,8.0,86,0.00,,,0.00,,2013-05-20 12:32:00,
2013-05-20 08:42:00,74.0,70.0,29.87,SW,225,4.0,8.0,86,0.00,,,0.00,,2013-05-20 12:42:00,
2013-05-20 08:52:00,74.0,69.0,29.87,SSW,211,4.0,10.0,85,0.00,,,0.00,,2013-05-20 12:52:00,
2013-05-20 09:01:00,75.0,70.0,29.87,SSW,192,3.0,10.0,84,0.00,,,0.00,,2013-05-20 13:01:00,
2013-05-20 09:11:00,75.0,70.0,29.87,SSW,192,3.0,10.0,84,0.00,,,0.00,,2013-05-20 13:11:00,
2013-05-20 09:22:00,76.0,70.0,29.88,West,266,5.0,9.0,82,0.00,,,0.00,,2013-05-20 13:22:00,
2013-05-20 09:32:00,76.0,70.0,29.88,SW,234,3.0,11.0,81,0.00,,,0.00,,2013-05-20 13:32:00,
2013-05-20 09:41:00,76.0,70.0,29.88,SW,234,3.0,11.0,81,0.00,,,0.00,,2013-05-20 13:41:00,
2013-05-20 09:52:00,76.0,69.0,29.88,WSW,250,3.0,12.0,80,0.00,,,0.00,,2013-05-20 13:52:00,
2013-05-20 10:01:00,76.0,69.0,29.88,SW,223,3.0,9.0,80,0.00,,,0.00,,2013-05-20 14:01:00,
2013-05-20 10:11:00,76.0,69.0,29.88,SW,223,3.0,9.0,80,0.00,,,0.00,,2013-05-20 14:11:00,
2013-05-20 10:22:00,77.0,70.0,29.87,WSW,248,3.0,10.0,79,0.00,,,0.00,,2013-05-20 14:22:00,
2013-05-20 10:32:00,78.0,71.0,29.86,SW,227,3.0,7.0,78,0.00,,,0.00,,2013-05-20 14:32:00,
2013-05-20 10:42:00,78.0,71.0,29.86,SW,227,3.0,7.0,78,0.00,,,0.00,,2013-05-20 14:42:00,
2013-05-20 10:52:00,78.0,70.0,29.86,SSW,197,3.0,9.0,76,0.00,,,0.00,,2013-05-20 14:52:00,
2013-05-20 11:01:00,78.0,70.0,29.85,SW,227,3.0,7.0,77,0.00,,,0.00,,2013-05-20 15:01:00,
2013-05-20 11:12:00,78.0,70.0,29.85,SW,227,3.0,7.0,77,0.00,,,0.00,,2013-05-20 15:12:00,
2013-05-20 11:22:00,78.0,70.0,29.85,SW,228,4.0,7.0,76,0.00,,,0.00,,2013-05-20 15:22:00,
2013-05-20 11:33:00,79.0,70.0,29.85,West,268,4.0,8.0,74,0.00,,,0.00,,2013-05-20 15:33:00,
2013-05-20 11:42:00,79.0,70.0,29.85,West,268,4.0,8.0,74,0.00,,,0.00,,2013-05-20 15:42:00,
2013-05-20 11:53:00,79.0,70.0,29.85,South,188,1.0,8.0,73,0.00,,,0.00,,2013-05-20 15:53:00,
2013-05-20 12:03:00,80.0,70.0,29.85,West,259,3.0,8.0,72,0.00,,,0.00,,2013-05-20 16:03:00,
2013-05-20 12:13:00,80.0,70.0,29.85,West,259,3.0,8.0,72,0.00,,,0.00,,2013-05-20 16:13:00,
2013-05-20 12:23:00,80.0,69.0,29.84,South,184,1.0,11.0,70,0.00,,,0.00,,2013-05-20 16:23:00,
2013-05-20 12:33:00,82.0,70.0,29.84,SW,234,2.0,8.0,67,0.00,,,0.00,,2013-05-20 16:33:00,
2013-05-20 12:42:00,82.0,70.0,29.84,SW,234,2.0,8.0,67,0.00,,,0.00,,2013-05-20 16:42:00,
2013-05-20 12:53:00,82.0,69.0,29.85,West,265,5.0,9.0,64,0.00,,,0.00,,2013-05-20 16:53:00,
2013-05-20 13:02:00,83.0,69.0,29.85,WSW,255,5.0,12.0,62,0.00,,,0.00,,2013-05-20 17:02:00,
2013-05-20 13:12:00,83.0,69.0,29.85,WSW,255,5.0,12.0,62,0.00,,,0.00,,2013-05-20 17:12:00,
2013-05-20 13:22:00,83.0,69.0,29.85,WSW,242,5.0,12.0,63,0.00,,,0.00,,2013-05-20 17:22:00,
2013-05-20 13:33:00,84.0,68.0,29.84,WSW,238,5.0,10.0,59,0.00,,,0.00,,2013-05-20 17:33:00,
2013-05-20 13:45:00,84.0,68.0,29.84,WSW,238,5.0,10.0,59,0.00,,,0.00,,2013-05-20 17:45:00,
2013-05-20 13:53:00,85.0,68.0,29.83,West,273,5.0,9.0,57,0.00,,,0.00,,2013-05-20 17:53:00,
2013-05-20 14:02:00,85.0,68.0,29.83,SSE,154,4.0,9.0,56,0.00,,,0.00,,2013-05-20 18:02:00,
2013-05-20 14:12:00,85.0,68.0,29.83,SSE,154,4.0,9.0,56,0.00,,,0.00,,2013-05-20 18:12:00,
2013-05-20 14:23:00,86.0,68.0,29.83,WNW,302,6.0,12.0,55,0.00,,,0.00,,2013-05-20 18:23:00,
2013-05-20 14:32:00,86.0,68.0,29.82,WSW,238,5.0,12.0,55,0.00,,,0.00,,2013-05-20 18:32:00,
2013-05-20 14:42:00,86.0,68.0,29.82,WSW,238,5.0,12.0,55,0.00,,,0.00,,2013-05-20 18:42:00,
2013-05-20 14:55:00,87.0,68.0,29.80,SSW,194,5.0,11.0,53,0.00,,,0.00,,2013-05-20 18:55:00,
2013-05-20 15:04:00,87.0,66.0,29.80,SSW,196,4.0,13.0,50,0.00,,,0.00,,2013-05-20 19:04:00,
2013-05-20 15:11:00,87.0,66.0,29.80,SSW,196,4.0,13.0,50,0.00,,,0.00,,2013-05-20 19:11:00,
2013-05-20 15:21:00,87.0,66.0,29.79,SSW,212,7.0,17.0,50,0.00,,,0.00,,2013-05-20 19:21:00,
2013-05-20 15:32:00,88.0,66.0,29.79,South,175,5.0,13.0,48,0.00,,,0.00,,2013-05-20 19:32:00,
2013-05-20 15:42:00,88.0,66.0,29.79,South,175,5.0,13.0,48,0.00,,,0.00,,2013-05-20 19:42:00,
2013-05-20 15:53:00,88.0,66.0,29.80,WSW,242,6.0,12.0,48,0.00,,,0.00,,2013-05-20 19:53:00,
2013-05-20 16:01:00,88.0,66.0,29.80,WSW,242,6.0,12.0,48,0.00,,,0.00,,2013-05-20 20:01:00,
2013-05-20 16:12:00,88.0,66.0,29.80,WSW,242,6.0,12.0,48,0.00,,,0.00,,2013-05-20 20:12:00,
2013-05-20 16:21:00,88.0,66.0,29.78,WSW,241,5.0,12.0,48,0.00,,,0.00,,2013-05-20 20:21:00,
2013-05-20 16:32:00,88.0,66.0,29.78,South,182,4.0,15.0,48,0.00,,,0.00,,2013-05-20 20:32:00,
2013-05-20 16:42:00,88.0,66.0,29.78,South,182,4.0,15.0,48,0.00,,,0.00,,2013-05-20 20:42:00,
2013-05-20 16:52:00,89.0,66.0,29.78,SW,216,5.0,13.0,47,0.00,,,0.00,,2013-05-20 20:52:00,
2013-05-20 17:01:00,89.0,66.0,29.78,SW,216,5.0,13.0,47,0.00,,,0.00,,2013-05-20 21:01:00,
2013-05-20 17:11:00,89.0,66.0,29.78,SW,216,5.0,13.0,47,0.00,,,0.00,,2013-05-20 21:11:00,
2013-05-20 17:21:00,88.0,66.0,29.78,WSW,248,6.0,15.0,49,0.00,,,0.00,,2013-05-20 21:21:00,
2013-05-20 17:33:00,88.0,66.0,29.78,WSW,246,7.0,14.0,49,0.00,,,0.00,,2013-05-20 21:33:00,
2013-05-20 17:43:00,87.0,66.0,29.77,SW,228,5.0,17.0,50,0.00,,,0.00,,2013-05-20 21:43:00,
2013-05-20 17:53:00,87.0,66.0,29.77,SW,228,5.0,17.0,50,0.00,,,0.00,,2013-05-20 21:53:00,
2013-05-20 18:02:00,87.0,65.0,29.76,West,275,6.0,17.0,49,0.00,,,0.00,,2013-05-20 22:02:00,
2013-05-20 18:13:00,87.0,65.0,29.76,West,275,6.0,17.0,49,0.00,,,0.00,,2013-05-20 22:13:00,
2013-05-20 18:23:00,86.0,65.0,29.77,SW,236,5.0,18.0,50,0.00,,,0.00,,2013-05-20 22:23:00,
2013-05-20 18:33:00,87.0,67.0,29.77,SW,224,5.0,14.0,51,0.00,,,0.00,,2013-05-20 22:33:00,
2013-05-20 18:42:00,87.0,67.0,29.77,SW,224,5.0,14.0,51,0.00,,,0.00,,2013-05-20 22:42:00,
2013-05-20 18:52:00,87.0,66.0,29.78,SW,235,6.0,15.0,50,0.00,,,0.00,,2013-05-20 22:52:00,
2013-05-20 19:03:00,87.0,66.0,29.78,WSW,242,5.0,15.0,50,0.00,,,0.00,,2013-05-20 23:03:00,
2013-05-20 19:12:00,87.0,66.0,29.78,WSW,242,5.0,15.0,50,0.00,,,0.00,,2013-05-20 23:12:00,
2013-05-20 19:22:00,85.0,65.0,29.78,West,262,6.0,14.0,52,0.00,,,0.00,,2013-05-20 23:22:00,
2013-05-20 19:32:00,85.0,65.0,29.77,SW,228,5.0,13.0,51,0.00,,,0.00,,2013-05-20 23:32:00,
2013-05-20 19:42:00,85.0,65.0,29.77,SW,228,5.0,13.0,51,0.00,,,0.00,,2013-05-20 23:42:00,
2013-05-20 19:52:00,84.0,64.0,29.77,West,281,4.0,12.0,52,0.00,,,0.00,,2013-05-20 23:52:00,
2013-05-20 20:01:00,84.0,65.0,29.77,WSW,250,5.0,13.0,53,0.00,,,0.00,,2013-05-21 00:01:00,
2013-05-20 20:11:00,84.0,65.0,29.77,WSW,250,5.0,13.0,53,0.00,,,0.00,,2013-05-21 00:11:00,
2013-05-20 20:22:00,84.0,66.0,29.77,WSW,240,4.0,11.0,54,0.00,,,0.00,,2013-05-21 00:22:00,
2013-05-20 20:32:00,83.0,65.0,29.77,SW,219,4.0,12.0,55,0.00,,,0.00,,2013-05-21 00:32:00,
2013-05-20 20:42:00,83.0,65.0,29.77,SW,231,5.0,11.0,55,0.00,,,0.00,,2013-05-21 00:42:00,
2013-05-20 20:52:00,83.0,65.0,29.77,SW,231,5.0,11.0,55,0.00,,,0.00,,2013-05-21 00:52:00,
2013-05-20 21:01:00,82.0,65.0,29.77,SSW,196,4.0,10.0,57,0.00,,,0.00,,2013-05-21 01:01:00,
2013-05-20 21:12:00,82.0,65.0,29.77,SSW,196,4.0,10.0,57,0.00,,,0.00,,2013-05-21 01:12:00,
2013-05-20 21:22:00,82.0,66.0,29.77,SW,234,3.0,7.0,58,0.00,,,0.00,,2013-05-21 01:22:00,
2013-05-20 21:32:00,81.0,65.0,29.77,SSW,202,2.0,7.0,59,0.00,,,0.00,,2013-05-21 01:32:00,
2013-05-20 21:42:00,81.0,65.0,29.77,SSW,202,2.0,7.0,59,0.00,,,0.00,,2013-05-21 01:42:00,
2013-05-20 21:52:00,81.0,66.0,29.77,SW,230,3.0,8.0,60,0.00,,,0.00,,2013-05-21 01:52:00,
2013-05-20 22:02:00,80.0,65.0,29.77,WSW,248,1.0,6.0,60,0.00,,,0.00,,2013-05-21 02:02:00,
2013-05-20 22:11:00,80.0,65.0,29.77,WSW,248,1.0,6.0,60,0.00,,,0.00,,2013-05-21 02:11:00,
2013-05-20 22:21:00,80.0,65.0,29.77,SSW,194,2.0,6.0,61,0.00,,,0.00,,2013-05-21 02:21:00,
2013-05-20 22:32:00,79.0,65.0,29.78,SSW,198,0.0,2.0,63,0.00,,,0.00,,2013-05-21 02:32:00,
2013-05-20 22:42:00,78.0,65.0,29.78,SW,234,0.0,3.0,64,0.00,,,0.00,,2013-05-21 02:42:00,
2013-05-20 22:52:00,78.0,65.0,29.78,SW,234,0.0,3.0,64,0.00,,,0.00,,2013-05-21 02:52:00,
2013-05-20 23:02:00,78.0,65.0,29.78,WSW,247,0.0,5.0,64,0.00,,,0.00,,2013-05-21 03:02:00,
2013-05-20 23:11:00,78.0,65.0,29.78,WSW,247,0.0,5.0,64,0.00,,,0.00,,2013-05-21 03:11:00,
2013-05-20 23:21:00,77.0,64.0,29.79,SSW,206,0.0,4.0,65,0.00,,,0.00,,2013-05-21 03:21:00,
2013-05-20 23:33:00,77.0,65.0,29.79,ESE,115,0.0,5.0,67,0.00,,,0.00,,2013-05-21 03:33:00,
2013-05-20 23:43:00,77.0,65.0,29.78,SSE,163,0.0,4.0,67,0.00,,,0.00,,2013-05-21 03:43:00,
2013-05-20 23:53:00,77.0,65.0,29.78,SSE,163,0.0,4.0,67,0.00,,,0.00,,2013-05-21 03:53:00,